Regional Weather Roundup
Issued by NWS

Home | Current Version | Previous Version | Text Only | Print | Product List | Glossary On
Versions: 1 2 3 4 5 6 7 8 9 10 11 12 13 14 15 16 17 18 19 20 21 22 23 24 25 26 27 28 29 30 31 32 33 34 35 36 37 38 39 40 41 42 43 44 45 46 47 48 49 50
000
ASUS43 KOAX 270502
RWRNE

WEATHER ROUNDUP FOR NEBRASKA
NATIONAL WEATHER SERVICE OMAHA NE
1200 AM CDT MON APR 27 2015

NOTES: SATELLITE DATA IS BEING USED TO AUGMENT CLOUD COVER ABOVE
       12000 FEET.
       "FAIR" INDICATES FEW OR NO CLOUDS BELOW 12,000 FEET WITH NO
       SIGNIFICANT WEATHER AND/OR OBSTRUCTIONS TO VISIBILITY.

  * THESE STATIONS DO NOT REPORT WEATHER SUCH AS RAIN...SNOW OR FOG.

NEZ001>004-019>022-054>056-270600-
NEBRASKA PANHANDLE

CITY           SKY/WX    TMP DP  RH WIND       PRES   REMARKS
SCOTTSBLUFF    CLOUDY    44  32  62 SE3       30.13R
ALLIANCE       CLOUDY    42  39  89 CALM      30.13R
CHADRON        CLOUDY    43  39  86 NE7       30.14R
KIMBALL        DRIZZLE   40  40 100 SE8       30.11R WCI  35
SIDNEY         LGT RAIN  42  41  96 E5        30.13R FOG
$$

NEZ057>060-069>072-079>082-270600-
SOUTHWEST NEBRASKA

CITY           SKY/WX    TMP DP  RH WIND       PRES   REMARKS
IMPERIAL       CLOUDY    47  42  83 NE10      30.10S
MCCOOK         CLOUDY    50  43  77 NE6       30.09R
$$

NEZ005>010-023>029-035>040-094-270600-
NORTH CENTRAL NEBRASKA

CITY           SKY/WX    TMP DP  RH WIND       PRES   REMARKS
VALENTINE      PTCLDY    46  31  55 NE3       30.14R
AINSWORTH      PTCLDY    42  31  64 SE3       30.14R
BROKEN BOW     PTCLDY    37  33  85 NE3       30.11S
ORD            CLEAR     37  32  82 NW7       30.11S WCI  32
$$

NEZ041-046>049-061>064-073>077-083>087-270600-
SOUTH CENTRAL NEBRASKA

CITY           SKY/WX    TMP DP  RH WIND       PRES   REMARKS
GRAND ISLAND   CLEAR     39  35  86 NE6       30.10S WCI  35
AURORA         CLEAR     45  39  79 E8        30.09S
HASTINGS       PTCLDY    45  38  76 E8        30.08R
KEARNEY *      CLEAR     39  36  87 NE7       30.10R WCI  34
YORK           CLEAR     43  37  81 E3        30.10R
$$

NEZ011>018-030>034-042>045-270600-
NORTHEAST NEBRASKA

CITY           SKY/WX    TMP DP  RH WIND       PRES   REMARKS
NORFOLK        CLEAR     45  35  68 CALM      30.11R
BLAIR          CLEAR     52  32  46 E3        30.10S
COLUMBUS *     CLEAR     39  32  75 N3        30.11F
TEKAMAH        CLEAR     47  35  63 CALM      30.11R
$$

NEZ050>053-065>068-078-088>093-270600-
SOUTHEAST NEBRASKA

CITY           SKY/WX    TMP DP  RH WIND       PRES   REMARKS
LINCOLN        CLEAR     41  36  82 NW3       30.10S
OMAHA EPPLEY   PTCLDY    50  35  56 CALM      30.10S
FALLS CITY     PTCLDY    50  32  50 NE7       30.07R
PLATTSMOUTH    CLEAR     51  31  46 NE5       30.09S
$$

NEZ044-045-051>053-067-270600-
OMAHA AREA

CITY           SKY/WX    TMP DP  RH WIND       PRES   REMARKS
OMAHA EPPLEY   PTCLDY    50  35  56 CALM      30.10S
BLAIR          CLEAR     52  32  46 E3        30.10S
OFFUTT AFB     CLEAR     41  36  82 E5        30.09S
PLATTSMOUTH    CLEAR     51  31  46 NE5       30.09S
$$



USA.gov is the U.S. government's official web portal to all federal, state and local government web resources and services.